Regional Weather Roundup
Issued by NWS

Home | Current Version | Previous Version | Text Only | Print | Product List | Glossary Off
Versions: 1 2 3 4 5 6 7 8 9 10 11 12 13 14 15 16 17 18 19 20 21 22 23 24 25 26 27 28 29 30 31 32 33 34 35 36 37 38 39 40 41 42 43 44 45 46 47 48 49 50

000
ASUS45 KBOI 061410
RWRID
WEATHER ROUNDUP FOR IDAHO
NATIONAL WEATHER SERVICE BOISE ID
800 AM MDT WED MAY 06 2015

NOTE: "FAIR" INDICATES FEW OR NO CLOUDS BELOW 12000 FEET
WITH NO SIGNIFICANT WEATHER AND/OR OBSTRUCTIONS TO VISIBILITY

IDZ012-014-061500-
SOUTHWEST IDAHO


CITY           SKY/WX    TMP DP  RH WIND       PRES   REMARKS
BOISE          PTSUNNY   43  28  55 NW9       29.89R
CALDWELL       PTSUNNY   45  25  45 NW13      29.92R
MOUNTAIN HOME  PTSUNNY   45  24  45 NW22G30   29.85S
$$

IDZ016-017-061500-
SOUTHCENTRAL IDAHO


CITY           SKY/WX    TMP DP  RH WIND       PRES   REMARKS
BURLEY         PTSUNNY   48  26  42 NW3       29.83S
JEROME         CLOUDY    43  24  47 SW10      29.85R
TWIN FALLS     CLOUDY    48  23  37 SW13      29.85R
$$

IDZ019>023-061500-
SOUTHEAST IDAHO


CITY           SKY/WX    TMP DP  RH WIND       PRES   REMARKS
IDAHO FALLS    PTSUNNY   46  32  58 SW16      29.84R
POCATELLO      MOSUNNY   46  23  40 SW14      29.85S
REXBURG        MOSUNNY   45  31  58 S10       29.83R
$$

IDZ006-010-011-018-031-032-061500-
CENTRAL IDAHO MOUNTAINS


CITY           SKY/WX    TMP DP  RH WIND       PRES   REMARKS
MCCALL         SUNNY     37  28  70 NW3       29.88S
HAILEY         PTSUNNY   43  25  49 NW9       29.84S
STANLEY          N/A     29  22  75 CALM      29.89F
SALMON         SUNNY     39  30  70 CALM      29.89S
CHALLIS        SUNNY     40  29  64 CALM      29.87S
$$

IDZ002-004-006-007-026-061500-
NORTHERN IDAHO


CITY           SKY/WX    TMP DP  RH WIND       PRES   REMARKS
LEWISTON       MOSUNNY   42  29  59 SE3       30.00R
LOWELL           N/A     41  36  82 CALM      30.01R
COEUR D`ALENE  SUNNY     43  36  75 S8        29.98R
MULLAN PASS    PTSUNNY   34  19  54 CALM      29.93R
$$



USA.gov is the U.S. government's official web portal to all federal, state and local government web resources and services.